Location: Buchberg
(46.9333°N, 15.8500°E)
Time: 19:47:22
(UTC+00:00)

Meteor 1-4 Rocket - Pass Details

Date: 14 July 2020
Orbit: 449 x 502 km, 81.2° (Epoch: 06 August)

Event Time Altitude Azimuth Distance (km) Brightness Sun altitude
Rises 00:15:44 0° 340° (NNW) 2,587 7.1 -19.5°
Reaches altitude 10° 00:18:00 10° 331° (NNW) 1,691 5.9 -19.3°
Maximum altitude 00:21:22 33° 266° (W) 830 3.5 -19.2°
Enters shadow 00:21:23 33° 266° (W) 830 3.5 -19.2°
